Weather History for Frederick, OK

Change the Weather History Date:

Thursday, June 5, 2014

  Actual Average (KLTS) Record (KLTS)
Temperature  
Mean Temperature 86 °F -  
Max Temperature 102 °F 87 °F 104 °F (2006)
Min Temperature 73 °F 64 °F -39 °F (2007)
Cooling Degree Days 22    
Growing Degree Days 36 (Base 50)    
Moisture  
Dew Point 65 °F    
Average Humidity 50    
Maximum Humidity 73    
Minimum Humidity 29    
Precipitation  
Precipitation 0.00 in - - ()
Sea Level Pressure  
Sea Level Pressure 29.64 in    
Wind  
Wind Speed 13 mph (South)    
Max Wind Speed 20 mph    
Max Gust Speed 29 mph    
Visibility 10 miles    
Events      
Averages and records for this station are not official NWS values.
T = Trace of Precipitation, MM = Missing Value Source: NWS Daily Summary

Daily Weather History Graph

Daily Weather History Graph

Search for Another Location

Airport:

Trip Planner

Search our weather history database for the weather conditions in past years. The results will help you decide how hot, cold, wet, or windy it might be!

Date:

Astronomy

Jun. 05, 2014 Rise Set
Actual Time 6:23 AM CDT 8:45 PM CDT
Civil Twilight 5:54 AM CDT 9:14 PM CDT
Nautical Twilight 5:19 AM CDT 9:50 PM CDT
Astronomical Twilight 4:40 AM CDT 10:29 PM CDT
Moon 1:27 PM CDT (6/5) 1:27 AM CDT (6/5)
Length of Visible Light 15h 19m
Length of Day
14h 21m
Waxing Crescent, 49% of the Moon is Illuminated
Jun 5
Waxing Crescent
Jun 5
First Quarter
Jun 12
Full
Jun 19
Last Quarter
Jun 27
New

Hourly Weather History & Observations

Time (CDT) Temp. Heat Index Dew Point Humidity Pressure Visibility Wind Dir Wind Speed Gust Speed Precip Events Conditions
12:53 AM 84.0 °F 86.3 °F 66.0 °F 55% 29.64 in 10.0 mi South 13.8 mph - N/A   Clear
1:53 AM 82.0 °F 84.5 °F 66.9 °F 60% 29.63 in 10.0 mi South 11.5 mph - N/A   Clear
2:53 AM 80.1 °F 82.3 °F 66.9 °F 64% 29.62 in 10.0 mi South 11.5 mph - N/A   Clear
3:53 AM 78.1 °F - 66.9 °F 68% 29.60 in 10.0 mi SSE 9.2 mph - N/A   Clear
4:53 AM 77.0 °F - 66.0 °F 69% 29.60 in 10.0 mi South 11.5 mph - N/A   Clear
5:53 AM 75.9 °F - 66.0 °F 71% 29.61 in 10.0 mi South 8.1 mph - N/A   Clear
6:53 AM 73.9 °F - 64.9 °F 73% 29.63 in 10.0 mi South 8.1 mph - N/A   Clear
7:53 AM 79.0 °F - 66.0 °F 64% 29.67 in 10.0 mi South 6.9 mph - N/A   Clear
8:53 AM 82.0 °F 84.1 °F 66.0 °F 58% 29.66 in 10.0 mi SSW 13.8 mph - N/A   Clear
9:53 AM 84.0 °F 86.3 °F 66.0 °F 55% 29.70 in 10.0 mi SW 9.2 mph - N/A   Clear
10:53 AM 88.0 °F 90.3 °F 66.0 °F 48% 29.68 in 10.0 mi SSW 13.8 mph 19.6 mph N/A   Clear
11:53 AM 91.9 °F 94.1 °F 64.9 °F 41% 29.68 in 10.0 mi SSW 16.1 mph 21.9 mph N/A   Clear
12:53 PM 96.1 °F 98.3 °F 64.0 °F 35% 29.66 in 10.0 mi South 16.1 mph 24.2 mph N/A   Clear
1:53 PM 98.1 °F 99.6 °F 63.0 °F 31% 29.65 in 10.0 mi SSW 12.7 mph 23.0 mph N/A   Clear
2:53 PM 100.9 °F 103.3 °F 63.0 °F 29% 29.63 in 10.0 mi South 16.1 mph 28.8 mph N/A   Clear
3:53 PM 100.9 °F 104.0 °F 64.0 °F 30% 29.63 in 10.0 mi South 18.4 mph 24.2 mph N/A   Partly Cloudy
4:53 PM 100.9 °F 103.3 °F 63.0 °F 29% 29.62 in 10.0 mi SSE 19.6 mph 27.6 mph N/A   Clear
5:53 PM 100.0 °F 101.8 °F 63.0 °F 29% 29.62 in 10.0 mi SSE 13.8 mph 24.2 mph N/A   Clear
6:53 PM 99.0 °F 100.5 °F 63.0 °F 30% 29.62 in 10.0 mi South 16.1 mph 23.0 mph N/A   Clear
8:53 PM 91.0 °F 93.8 °F 66.0 °F 44% 29.65 in 10.0 mi SE 15.0 mph - N/A   Clear
9:53 PM 88.0 °F 90.7 °F 66.9 °F 49% 29.66 in 10.0 mi SSE 15.0 mph - N/A   Clear
10:53 PM 86.0 °F 88.8 °F 66.9 °F 53% 29.68 in 10.0 mi SSE 12.7 mph - N/A   Clear
11:53 PM 84.0 °F 87.0 °F 68.0 °F 58% 29.69 in 10.0 mi SSE 11.5 mph - N/A   Clear